Regional Weather Roundup
Issued by NWS

Home | Current Version | Previous Version | Text Only | Print | Product List | Glossary Off
Versions: 1 2 3 4 5 6 7 8 9 10 11 12 13 14 15 16 17 18 19 20 21 22 23 24 25 26 27 28 29 30 31 32 33 34 35 36 37 38 39 40 41 42 43 44 45 46 47 48 49 50

000
ASUS44 KMEG 221410
RWRTN
TENNESSEE HOURLY STATE WEATHER ROUNDUP
NATIONAL WEATHER SERVICE MEMPHIS TN
900 AM CDT FRI AUG 22 2014

TNZ002-004-019-021-049-052-054-088>092-221500-
WEST TENNESSEE

CITY           SKY/WX    TMP DP  RH WIND       PRES   REMARKS
MEMPHIS INTL   MOSUNNY   83  73  72 SW6       30.10S
NWS MEMPHIS      N/A     82 N/A N/A MISG        N/A
JACKSON        SUNNY     82  73  74 SW8       30.09F
DYERSBURG      SUNNY     82  68  61 SW8       30.08F
UNION CITY     SUNNY     81  75  83 SW6       30.05F
PARIS          SUNNY     79  73  83 SW7       30.08F
HUNTINGDON     SUNNY     81  74  79 SW5       30.08F
LEXINGTON      SUNNY     82  73  74 SW6       30.09F
SAVANNAH       SUNNY     81  75  83 CALM      30.13R
$$

TNZ008-025-027-028-033-062-065-066-221500-
NORTH MIDDLE TENNESSEE

CITY           SKY/WX    TMP DP  RH WIND       PRES   REMARKS
NASHVILLE      PTSUNNY   85  74  69 SW7       30.11S HX  92
DICKSON        MOSUNNY   79  73  83 W7        30.11S
PORTLAND       PTSUNNY   81  73  78 W9        30.09S
CLARKSVILLE    MOSUNNY   83  74  74 W10       30.08S
LEBANON        MOSUNNY   82  73  74 SW8       30.09S
SMYRNA         MOSUNNY   83  75  76 W10       30.12S HX  90
MURFREESBORO   MOSUNNY   81  72  74 SW8       30.11S
COOKEVILLE     SUNNY     82  75  78 W6        30.13S
LIVINGSTON     MOSUNNY   78  72  82 SW8       30.14
GALLATIN       MOSUNNY   82  77  85 SW5       30.11S HX  90
CROSSVILLE     MOSUNNY   80  71  74 W8        30.18F
$$

TNZ061-075-076-078-094-096-097-221500-
SOUTH MIDDLE TENNESSEE

CITY           SKY/WX    TMP DP  RH WIND       PRES   REMARKS
LEWISBURG      MOSUNNY   82  72  72 SW5       30.13R
FAYETTEVILLE   SUNNY     79  72  78 W6        30.15S
TULLAHOMA      SUNNY     81  73  78 W6        30.16S
WINCHESTER     SUNNY     81  73  78 SW5       30.15F
MCMINNVILLE    SUNNY     81  81 100 W8        30.15R HX  91
COLUMBIA       SUNNY     82  77  83 SW6       30.11F HX  91
SHELBYVILLE    SUNNY     81  75  83 W7        30.14S
$$

TNZ017-018-042-046-047-221500-
NORTHEAST TENNESSEE

CITY           SKY/WX    TMP DP  RH WIND       PRES   REMARKS
TRI CITIES     CLOUDY    75  70  84 W3        30.14S
ELIZABETHTON   MOSUNNY   73  70  88 CALM      30.15S
$$

TNZ012-013-036-069-073-074-221500-
CENTRAL EAST TENNESSEE

CITY           SKY/WX    TMP DP  RH WIND       PRES   REMARKS
KNOXVILLE      PTSUNNY   80  72  76 SW10      30.12S
OAK RIDGE      MOSUNNY   80  73  79 VRB5      30.13F
GATLINBURG     MOSUNNY   79  70  73 CALM      30.12F
MORRISTOWN     SUNNY     79  73  83 VRB5      30.15S
$$

TNZ083-085-099-221500-
SOUTHEAST TENNESSEE

CITY           SKY/WX    TMP DP  RH WIND       PRES   REMARKS
CHATTANOOGA    PTSUNNY   83  73  72 CALM      30.14R
$$

SKY/WX REPORTED AS FAIR MEANS FEW OR NO CLOUDS BELOW
12 THOUSAND FEET.




USA.gov is the U.S. government's official web portal to all federal, state and local government web resources and services.